This is the latest recevied weather packets stored in our database for station/object JL1CBB-13. If no packets are shown the sender has not sent any weather packets the latest 10 day(s).
| Time | Temp. | Humidity | Pressure | Rain* | Wind** | Luminosity | Snow |
|---|---|---|---|---|---|---|---|
| 1777083750 | 21.67° C | 52% | 1023 hPa | 0 mm | - | - | - |
| 1777083152 | 21.67° C | 53% | 1024 hPa | 0 mm | - | - | - |
| 1777082552 | 21.11° C | 54% | 1024 hPa | 0 mm | - | - | - |
| 1777081952 | 20° C | 55% | 1024 hPa | 0 mm | - | - | - |
| 1777081352 | 19.44° C | 55% | 1024 hPa | 0 mm | - | - | - |
| 1777080750 | 20° C | 54% | 1024 hPa | 0 mm | - | - | - |
| 1777080150 | 20° C | 53% | 1025 hPa | 0 mm | - | - | - |
| 1777079549 | 21.11° C | 53% | 1024 hPa | 0 mm | - | - | - |
| 1777078950 | 21.11° C | 53% | 1024 hPa | 0 mm | - | - | - |
| 1777078349 | 21.11° C | 53% | 1024 hPa | 0 mm | - | - | - |
| 1777077749 | 20.56° C | 54% | 1025 hPa | 0 mm | - | - | - |
| 1777077149 | 20.56° C | 54% | 1025 hPa | 0 mm | - | - | - |
| 1777076550 | 20.56° C | 55% | 1025 hPa | 0 mm | - | - | - |
| 1777075949 | 21.11° C | 54% | 1025 hPa | 0 mm | - | - | - |
| 1777075349 | 20° C | 55% | 1025 hPa | 0 mm | - | - | - |
| 1777074696 | 20° C | 55% | 1025 hPa | 0 mm | - | - | - |
| 1777074022 | 20.56° C | 59% | 1025 hPa | 0 mm | - | - | - |
| 1777073422 | 20° C | 63% | 1025 hPa | 0 mm | - | - | - |
| 1777072821 | 17.78° C | 66% | 1025 hPa | 0 mm | - | - | - |
| 1777072221 | 16.11° C | 69% | 1025 hPa | 0 mm | - | - | - |
| 1777071621 | 15° C | 69% | 1025 hPa | 0 mm | - | - | - |
| 1777071021 | 15° C | 71% | 1025 hPa | 0 mm | - | - | - |
| 1777070421 | 14.44° C | 72% | 1025 hPa | 0 mm | - | - | - |
| 1777069821 | 14.44° C | 73% | 1025 hPa | 0 mm | - | - | - |
| 1777069221 | 13.89° C | 74% | 1025 hPa | 0 mm | - | - | - |
* Rain latest hour (hover to see other rain measurements)
** Current wind speed in m/s (hover to see current wind gust speed)